Zurück zum Katalog

KUIPER-00166

AktivKommunikationLEO
NORAD 65779·PAYLOAD·🇺🇸 United States

Gestartet Sep 25, 2025 von Cape Canaveral Space Force Station

Loading…

Nächste Überflüge (nächste 24 Stunden)

TLE

AktuellSource: CelesTrak SupGP

Epoche: Sep 14, 2026, 13:29 UTC

1 65779C 25217T   26257.56239583  .00004571  00000+0  59856-3 0  2573
2 65779  51.9011 267.9728 0000497  80.7303 154.6633 14.79911100    17

Verfolge KUIPER-00166 in Echtzeit mit AllMySat

Download on the App Store